カタログに戻る

DELTA 1 DEB

運用中PO
NORAD 21498·DEBRIS·🇺🇸 United States

打ち上げ Jun 12, 1975 から Vandenberg Space Force Base

Loading…

次のパス (今後24時間)

TLE

最新Source: Space-Track

元期: Sep 14, 2026, 04:28 UTC

1 21498U 75052FT  26257.18672498 -.00000269  00000-0 -70209-3 0  9990
2 21498  99.7015 163.3334 0261079 220.7026 300.9038 12.95366844667666

AllMySatでDELTA 1 DEBをリアルタイム追跡

Download on the App Store